UPS3555 PANC-KSDF

Flight info

Callsign UPS3555
Flight time 6h 2m
Altitude 37000
Route TED J501 YAK NCA10 DEEJA MITOM 58N130W YQU/N0490F390 YEGGA FUDGY SEFFY ODGOV MOT BDF SHARE JMONY2
Aircraft B748/H-SDE3FGHIM1M2RWXY/LB1

Departure

Time 2026-05-07 06:58
Airport Ted Stevens Anchorage International Airport (PANC)

Arrival

Time 2026-05-07 13:00
Airport Louisville Muhammad Ali International Airport (KSDF)
Time Latitude Longitude Altitude Speed Heading
2026-05-07 06:27 61.19540 -150.00257 136 ft 0 kts 165°
2026-05-07 06:29 61.19540 -150.00258 136 ft 0 kts 165°
2026-05-07 06:29 61.19541 -150.00258 136 ft 0 kts 165°
2026-05-07 06:35 61.19542 -150.00258 136 ft 2 kts 165°
2026-05-07 06:36 61.19566 -150.00272 134 ft 4 kts 164°
2026-05-07 06:36 61.19589 -150.00286 134 ft 3 kts 164°
2026-05-07 06:36 61.19613 -150.00290 136 ft 4 kts 214°
2026-05-07 06:36 61.19626 -150.00249 136 ft 4 kts 256°
2026-05-07 06:37 61.19630 -150.00216 133 ft 1 kts 255°
2026-05-07 06:37 61.19630 -150.00212 134 ft 0 kts 255°
2026-05-07 06:43 61.19630 -150.00213 136 ft 0 kts 255°
2026-05-07 06:43 61.19626 -150.00241 127 ft 4 kts 255°
2026-05-07 06:44 61.19616 -150.00318 134 ft 7 kts 255°
2026-05-07 06:44 61.19600 -150.00439 129 ft 10 kts 254°
2026-05-07 06:44 61.19578 -150.00603 136 ft 13 kts 255°
2026-05-07 06:44 61.19549 -150.00774 135 ft 7 kts 229°
2026-05-07 06:45 61.19518 -150.00796 132 ft 7 kts 189°
2026-05-07 06:45 61.19454 -150.00794 128 ft 12 kts 171°
2026-05-07 06:45 61.19355 -150.00755 136 ft 17 kts 168°
2026-05-07 06:45 61.19229 -150.00690 131 ft 20 kts 165°
2026-05-07 06:46 61.19082 -150.00603 133 ft 23 kts 163°
2026-05-07 06:46 61.18920 -150.00500 130 ft 25 kts 166°
2026-05-07 06:46 61.18744 -150.00403 132 ft 27 kts 164°
2026-05-07 06:46 61.18556 -150.00296 131 ft 29 kts 164°
2026-05-07 06:47 61.18360 -150.00193 135 ft 30 kts 166°
2026-05-07 06:47 61.18159 -150.00089 132 ft 29 kts 165°
2026-05-07 06:47 61.17984 -149.99987 145 ft 24 kts 165°
2026-05-07 06:47 61.17839 -149.99911 133 ft 20 kts 165°
2026-05-07 06:48 61.17706 -149.99841 139 ft 18 kts 166°
2026-05-07 06:48 61.17591 -149.99780 134 ft 16 kts 165°
2026-05-07 06:48 61.17489 -149.99723 135 ft 14 kts 165°
2026-05-07 06:48 61.17399 -149.99673 135 ft 12 kts 164°
2026-05-07 06:49 61.17320 -149.99627 134 ft 11 kts 164°
2026-05-07 06:49 61.17248 -149.99584 134 ft 10 kts 164°
2026-05-07 06:49 61.17191 -149.99555 132 ft 3 kts 180°
2026-05-07 06:49 61.17187 -149.99559 134 ft 0 kts 196°
2026-05-07 06:50 61.17185 -149.99561 135 ft 1 kts 197°
2026-05-07 06:50 61.17169 -149.99584 134 ft 4 kts 221°
2026-05-07 06:50 61.17145 -149.99655 123 ft 8 kts 243°
2026-05-07 06:50 61.17118 -149.99821 132 ft 15 kts 254°
2026-05-07 06:51 61.17113 -150.00035 135 ft 15 kts 270°
2026-05-07 06:51 61.17116 -150.00262 135 ft 17 kts 272°
2026-05-07 06:51 61.17119 -150.00527 132 ft 20 kts 271°
2026-05-07 06:51 61.17120 -150.00830 128 ft 22 kts 271°
2026-05-07 06:52 61.17123 -150.01164 136 ft 24 kts 273°
2026-05-07 06:52 61.17128 -150.01529 136 ft 26 kts 270°
2026-05-07 06:52 61.17124 -150.01913 136 ft 27 kts 268°
2026-05-07 06:52 61.17122 -150.02300 128 ft 27 kts 269°
2026-05-07 06:53 61.17120 -150.02662 129 ft 23 kts 271°
2026-05-07 06:53 61.17123 -150.02976 136 ft 20 kts 271°
2026-05-07 06:53 61.17116 -150.03215 131 ft 13 kts 250°
2026-05-07 06:53 61.17071 -150.03364 131 ft 11 kts 232°
2026-05-07 06:54 61.17020 -150.03467 127 ft 9 kts 214°
2026-05-07 06:54 61.16969 -150.03509 131 ft 7 kts 192°
2026-05-07 06:54 61.16930 -150.03518 128 ft 5 kts 181°
2026-05-07 06:54 61.16924 -150.03518 135 ft 0 kts 178°
2026-05-07 06:56 61.16920 -150.03518 130 ft 2 kts 178°
2026-05-07 06:56 61.16893 -150.03509 134 ft 5 kts 163°
2026-05-07 06:56 61.16853 -150.03452 127 ft 10 kts 142°
2026-05-07 06:56 61.16797 -150.03340 133 ft 11 kts 127°
2026-05-07 06:57 61.16792 -150.03322 133 ft 0 kts 117°
2026-05-07 06:57 61.16792 -150.03320 133 ft 0 kts 113°
2026-05-07 06:57 61.16791 -150.03301 129 ft 4 kts 101°
2026-05-07 06:57 61.16781 -150.02853 128 ft 80 kts 90°
2026-05-07 06:58 61.16778 -150.00916 139 ft 183 kts 93°
2026-05-07 06:58 61.16828 -149.97972 899 ft 216 kts 90°
2026-05-07 06:58 61.16877 -149.94839 1587 ft 226 kts 93°
2026-05-07 06:58 61.16845 -149.91346 2001 ft 251 kts 94°
2026-05-07 06:59 61.16900 -149.87728 3353 ft 254 kts 90°
2026-05-07 06:59 61.17030 -149.84012 4489 ft 262 kts 89°
2026-05-07 06:59 61.17179 -149.80200 5631 ft 268 kts 88°
2026-05-07 06:59 61.17330 -149.76359 6770 ft 274 kts 88°
2026-05-07 07:00 61.17481 -149.72399 7835 ft 277 kts 88°
2026-05-07 07:00 61.17632 -149.68396 8913 ft 280 kts 88°
2026-05-07 07:00 61.17784 -149.64342 9953 ft 284 kts 88°
2026-05-07 07:00 61.17936 -149.60201 10728 ft 294 kts 88°
2026-05-07 07:01 61.18087 -149.55868 11333 ft 311 kts 88°
2026-05-07 07:01 61.18236 -149.51268 11820 ft 329 kts 88°
2026-05-07 07:01 61.18384 -149.46396 12289 ft 349 kts 88°
2026-05-07 07:01 61.18533 -149.41234 12756 ft 368 kts 88°
2026-05-07 07:02 61.18681 -149.35808 13306 ft 383 kts 89°
2026-05-07 07:02 61.18830 -149.30234 14075 ft 391 kts 89°
2026-05-07 07:02 61.18980 -149.24559 14742 ft 397 kts 88°
2026-05-07 07:02 61.19123 -149.18862 15409 ft 404 kts 89°
2026-05-07 07:03 61.18903 -149.12977 16091 ft 408 kts 105°
2026-05-07 07:03 61.17927 -149.07527 16783 ft 411 kts 120°
2026-05-07 07:03 61.16392 -149.02501 17418 ft 415 kts 128°
2026-05-07 07:03 61.14672 -148.97637 18080 ft 422 kts 129°
2026-05-07 07:04 61.12990 -148.92594 18654 ft 429 kts 124°
2026-05-07 07:04 61.11533 -148.87141 19202 ft 436 kts 119°
2026-05-07 07:04 61.10190 -148.81468 19752 ft 441 kts 118°
2026-05-07 07:04 61.08760 -148.75833 20264 ft 444 kts 122°
2026-05-07 07:05 61.07199 -148.70290 20757 ft 448 kts 123°
2026-05-07 07:05 61.05637 -148.64676 21268 ft 453 kts 122°
2026-05-07 07:05 61.04128 -148.58945 21793 ft 457 kts 121°
2026-05-07 07:05 61.02602 -148.53151 22309 ft 460 kts 122°
2026-05-07 07:06 61.01027 -148.47376 22790 ft 464 kts 122°
2026-05-07 07:06 60.99430 -148.41569 23228 ft 468 kts 122°
2026-05-07 07:06 60.97838 -148.35705 23681 ft 471 kts 122°
2026-05-07 07:06 60.96239 -148.29792 24033 ft 474 kts 122°
2026-05-07 07:07 60.94642 -148.23940 24384 ft 477 kts 123°
2026-05-07 07:07 60.93003 -148.17995 24709 ft 479 kts 123°
2026-05-07 07:07 60.91359 -148.12014 25034 ft 482 kts 123°
2026-05-07 07:07 60.89709 -148.06002 25371 ft 484 kts 123°
2026-05-07 07:08 60.88048 -147.99983 25699 ft 486 kts 123°
2026-05-07 07:08 60.86371 -147.93935 26057 ft 488 kts 123°
2026-05-07 07:08 60.84684 -147.87863 26409 ft 491 kts 123°
2026-05-07 07:08 60.82987 -147.81765 26745 ft 493 kts 123°
2026-05-07 07:09 60.81282 -147.75660 27098 ft 496 kts 123°
2026-05-07 07:09 60.79563 -147.69520 27461 ft 498 kts 123°
2026-05-07 07:09 60.77834 -147.63358 27808 ft 500 kts 123°
2026-05-07 07:09 60.76093 -147.57170 28137 ft 503 kts 124°
2026-05-07 07:10 60.74340 -147.50961 28471 ft 505 kts 124°
2026-05-07 07:10 60.72575 -147.44728 28822 ft 508 kts 124°
2026-05-07 07:10 60.70796 -147.38455 29192 ft 511 kts 124°
2026-05-07 07:10 60.69004 -147.32161 29545 ft 514 kts 124°
2026-05-07 07:11 60.67201 -147.25838 29951 ft 516 kts 124°
2026-05-07 07:11 60.65399 -147.19534 30487 ft 515 kts 124°
2026-05-07 07:11 60.63616 -147.13318 30955 ft 514 kts 124°
2026-05-07 07:11 60.61806 -147.07032 31469 ft 514 kts 124°
2026-05-07 07:12 60.59996 -147.00758 31984 ft 514 kts 124°
2026-05-07 07:12 60.58184 -146.94491 32498 ft 514 kts 124°
2026-05-07 07:12 60.56369 -146.88238 33060 ft 514 kts 124°
2026-05-07 07:12 60.54551 -146.81990 33644 ft 513 kts 124°
2026-05-07 07:13 60.52732 -146.75750 34245 ft 513 kts 124°
2026-05-07 07:13 60.50912 -146.69525 34771 ft 512 kts 124°
2026-05-07 07:13 60.49093 -146.63325 35271 ft 512 kts 124°
2026-05-07 07:13 60.47515 -146.56836 35810 ft 516 kts 112°
2026-05-07 07:14 60.46513 -146.49825 36325 ft 518 kts 104°
2026-05-07 07:14 60.45870 -146.42648 36818 ft 519 kts 100°
2026-05-07 07:14 60.45350 -146.35405 37153 ft 519 kts 100°
2026-05-07 07:14 60.44968 -146.30618 37154 ft 519 kts 103°
2026-05-07 07:15 60.43224 -146.16530 37159 ft 515 kts 107°
2026-05-07 07:15 60.41648 -146.02384 37166 ft 515 kts 104°
2026-05-07 07:16 60.39747 -145.86038 37158 ft 514 kts 106°
2026-05-07 07:16 60.38378 -145.74241 37147 ft 514 kts 105°
2026-05-07 07:17 60.36742 -145.60180 37160 ft 514 kts 106°
2026-05-07 07:17 60.35072 -145.46221 37168 ft 514 kts 105°
2026-05-07 07:18 60.33402 -145.32187 37172 ft 514 kts 106°
2026-05-07 07:18 60.31697 -145.18167 37172 ft 514 kts 106°
2026-05-07 07:19 60.29990 -145.04146 37153 ft 514 kts 106°
2026-05-07 07:19 60.28258 -144.90137 37174 ft 515 kts 106°
2026-05-07 07:20 60.26519 -144.76160 37193 ft 515 kts 106°
2026-05-07 07:20 60.24761 -144.62184 37186 ft 515 kts 107°
2026-05-07 07:21 60.22988 -144.48215 37190 ft 515 kts 107°
2026-05-07 07:21 60.21215 -144.34374 37162 ft 514 kts 107°
2026-05-07 07:22 60.19411 -144.20432 37192 ft 516 kts 107°
2026-05-07 07:22 60.17594 -144.06499 37189 ft 515 kts 107°
2026-05-07 07:23 60.15761 -143.92585 37190 ft 515 kts 107°
2026-05-07 07:23 60.13916 -143.78706 37188 ft 515 kts 107°
2026-05-07 07:24 60.12055 -143.64823 37180 ft 515 kts 108°
2026-05-07 07:24 60.10178 -143.50949 37185 ft 515 kts 108°
2026-05-07 07:25 60.07337 -143.30186 37195 ft 515 kts 108°
2026-05-07 07:26 60.05427 -143.16368 37198 ft 515 kts 108°
2026-05-07 07:26 60.03510 -143.02633 37177 ft 515 kts 108°
2026-05-07 07:27 60.01567 -142.88823 37191 ft 516 kts 108°
2026-05-07 07:27 59.99607 -142.75011 37194 ft 516 kts 108°
2026-05-07 07:28 59.97635 -142.61229 37193 ft 516 kts 109°
2026-05-07 07:28 59.95646 -142.47449 37193 ft 516 kts 109°
2026-05-07 07:29 59.93645 -142.33702 37192 ft 516 kts 109°
2026-05-07 07:29 59.91622 -142.19922 37200 ft 517 kts 109°
2026-05-07 07:30 59.89586 -142.06162 37197 ft 517 kts 109°
2026-05-07 07:30 59.87538 -141.92436 37205 ft 517 kts 109°
2026-05-07 07:31 59.85471 -141.78699 37206 ft 517 kts 109°
2026-05-07 07:31 59.83395 -141.65010 37221 ft 518 kts 110°
2026-05-07 07:32 59.81315 -141.51409 37223 ft 517 kts 110°
2026-05-07 07:32 59.79208 -141.37737 37221 ft 517 kts 110°
2026-05-07 07:33 59.77087 -141.24084 37223 ft 517 kts 110°
2026-05-07 07:33 59.74951 -141.10444 37221 ft 517 kts 110°
2026-05-07 07:34 59.72801 -140.96823 37215 ft 517 kts 110°
2026-05-07 07:34 59.70637 -140.83215 37227 ft 518 kts 110°
2026-05-07 07:35 59.68469 -140.69694 37228 ft 518 kts 110°
2026-05-07 07:35 59.66275 -140.56113 37227 ft 518 kts 111°
2026-05-07 07:36 59.64068 -140.42551 37231 ft 518 kts 111°
2026-05-07 07:36 59.61847 -140.29016 37223 ft 518 kts 111°
2026-05-07 07:37 59.59612 -140.15490 37226 ft 518 kts 111°
2026-05-07 07:37 59.57362 -140.01983 37226 ft 518 kts 111°
2026-05-07 07:38 59.55098 -139.88490 37225 ft 518 kts 111°
2026-05-07 07:38 59.52821 -139.75016 37200 ft 518 kts 111°
2026-05-07 07:39 59.50693 -139.61546 37248 ft 520 kts 106°
2026-05-07 07:39 59.49171 -139.47600 37245 ft 522 kts 104°
2026-05-07 07:40 59.47586 -139.33680 37250 ft 521 kts 106°
2026-05-07 07:40 59.45997 -139.19773 37275 ft 521 kts 105°
2026-05-07 07:41 59.44398 -139.05859 37218 ft 522 kts 106°
2026-05-07 07:41 59.42771 -138.91956 37255 ft 522 kts 105°
2026-05-07 07:42 59.41142 -138.78061 37275 ft 521 kts 106°
2026-05-07 07:42 59.39486 -138.64197 37237 ft 522 kts 106°
2026-05-07 07:43 59.37827 -138.50338 37245 ft 521 kts 106°
2026-05-07 07:43 59.36146 -138.36503 37234 ft 522 kts 106°
2026-05-07 07:44 59.34461 -138.22728 37262 ft 523 kts 106°
2026-05-07 07:44 59.32749 -138.08883 37253 ft 523 kts 107°
2026-05-07 07:45 59.31024 -137.95061 37250 ft 523 kts 107°
2026-05-07 07:45 59.29282 -137.81242 37254 ft 523 kts 107°
2026-05-07 07:46 59.27527 -137.67435 37234 ft 522 kts 107°
2026-05-07 07:46 59.25756 -137.53646 37243 ft 523 kts 107°
2026-05-07 07:47 59.23972 -137.39864 37239 ft 523 kts 107°
2026-05-07 07:47 59.22168 -137.26080 37245 ft 524 kts 107°
2026-05-07 07:48 59.20353 -137.12318 37236 ft 523 kts 107°
2026-05-07 07:48 59.18529 -136.98617 37236 ft 522 kts 108°
2026-05-07 07:49 59.16703 -136.85021 37234 ft 520 kts 108°
2026-05-07 07:49 59.14856 -136.71396 37242 ft 520 kts 108°
2026-05-07 07:50 59.12993 -136.57774 37244 ft 521 kts 108°
2026-05-07 07:50 59.11118 -136.44170 37242 ft 519 kts 108°
2026-05-07 07:51 59.09229 -136.30603 37227 ft 520 kts 108°
2026-05-07 07:51 59.07323 -136.17008 37245 ft 521 kts 108°
2026-05-07 07:52 59.05399 -136.03424 37250 ft 522 kts 108°
2026-05-07 07:52 59.03463 -135.89850 37248 ft 521 kts 108°
2026-05-07 07:53 59.01511 -135.76296 37256 ft 521 kts 108°
2026-05-07 07:53 58.99549 -135.62777 37229 ft 521 kts 108°
2026-05-07 07:54 58.97568 -135.49233 37246 ft 521 kts 108°
2026-05-07 07:54 58.95585 -135.35807 37245 ft 522 kts 109°
2026-05-07 07:55 58.93580 -135.22316 37247 ft 521 kts 109°
2026-05-07 07:55 58.91556 -135.08826 37243 ft 522 kts 109°
2026-05-07 07:56 58.89518 -134.95352 37247 ft 521 kts 109°
2026-05-07 07:56 58.87467 -134.81926 37241 ft 520 kts 109°
2026-05-07 07:57 58.85404 -134.68543 37263 ft 520 kts 109°
2026-05-07 07:57 58.83329 -134.55151 37260 ft 520 kts 109°
2026-05-07 07:58 58.81241 -134.41798 37278 ft 518 kts 109°
2026-05-07 07:58 58.79138 -134.28470 37264 ft 519 kts 110°
2026-05-07 07:59 58.77018 -134.15122 37273 ft 521 kts 110°
2026-05-07 07:59 58.74883 -134.01782 37273 ft 521 kts 110°
2026-05-07 08:00 58.72745 -133.88534 37265 ft 521 kts 110°
2026-05-07 08:00 58.70581 -133.75205 37258 ft 521 kts 110°
2026-05-07 08:01 58.68401 -133.61916 37262 ft 521 kts 110°
2026-05-07 08:01 58.66211 -133.48629 37260 ft 521 kts 110°
2026-05-07 08:02 58.64008 -133.35388 37255 ft 522 kts 111°
2026-05-07 08:02 58.61790 -133.22130 37251 ft 521 kts 111°
2026-05-07 08:03 58.59549 -133.08861 37251 ft 522 kts 111°
2026-05-07 08:03 58.57316 -132.95721 37265 ft 523 kts 111°
2026-05-07 08:04 58.55045 -132.82460 37243 ft 523 kts 111°
2026-05-07 08:04 58.52764 -132.69225 37225 ft 523 kts 111°
2026-05-07 08:05 58.50472 -132.56040 37214 ft 523 kts 111°
2026-05-07 08:05 58.48167 -132.42858 37212 ft 523 kts 111°
2026-05-07 08:06 58.45839 -132.29655 37204 ft 527 kts 111°
2026-05-07 08:06 58.43497 -132.16433 37203 ft 526 kts 111°
2026-05-07 08:07 58.41148 -132.03323 37199 ft 525 kts 112°
2026-05-07 08:07 58.38780 -131.90153 37203 ft 525 kts 112°
2026-05-07 08:08 58.36394 -131.77004 37186 ft 525 kts 112°
2026-05-07 08:08 58.33989 -131.63827 37185 ft 531 kts 112°
2026-05-07 08:09 58.31498 -131.50600 37192 ft 530 kts 115°
2026-05-07 08:09 58.28866 -131.37505 37191 ft 530 kts 114°
2026-05-07 08:10 58.26211 -131.24473 37185 ft 529 kts 115°
2026-05-07 08:10 58.23540 -131.11450 37186 ft 530 kts 114°
2026-05-07 08:11 58.20862 -130.98440 37182 ft 528 kts 114°
2026-05-07 08:11 58.18174 -130.85499 37180 ft 527 kts 114°
2026-05-07 08:12 58.15497 -130.72666 37176 ft 527 kts 114°
2026-05-07 08:12 58.12789 -130.59791 37174 ft 527 kts 114°
2026-05-07 08:13 58.10071 -130.46922 37170 ft 526 kts 114°
2026-05-07 08:13 58.07339 -130.34099 37172 ft 526 kts 114°
2026-05-07 08:14 58.05061 -130.23445 37172 ft 526 kts 115°
2026-05-07 08:14 58.02308 -130.10658 37164 ft 526 kts 115°
2026-05-07 08:15 57.99583 -129.97853 37166 ft 527 kts 112°
2026-05-07 08:15 57.97015 -129.84917 37154 ft 526 kts 113°
2026-05-07 08:16 57.94434 -129.71977 37167 ft 527 kts 113°
2026-05-07 08:16 57.91850 -129.59095 37156 ft 526 kts 113°
2026-05-07 08:17 57.89270 -129.46328 37160 ft 526 kts 113°
2026-05-07 08:17 57.86663 -129.33496 37152 ft 525 kts 113°
2026-05-07 08:18 57.84042 -129.20691 37165 ft 527 kts 113°
2026-05-07 08:18 57.81403 -129.07867 37163 ft 527 kts 113°
2026-05-07 08:19 57.78751 -128.95075 37169 ft 526 kts 113°
2026-05-07 08:19 57.76091 -128.82311 37157 ft 526 kts 114°
2026-05-07 08:20 57.73418 -128.69565 37134 ft 526 kts 114°
2026-05-07 08:20 57.70731 -128.56851 37132 ft 525 kts 114°
2026-05-07 08:21 57.68041 -128.44192 37138 ft 524 kts 114°
2026-05-07 08:21 57.65356 -128.31635 37132 ft 523 kts 114°
2026-05-07 08:22 57.62643 -128.19018 37129 ft 524 kts 114°
2026-05-07 08:22 57.59913 -128.06403 37128 ft 523 kts 114°
2026-05-07 08:23 57.57175 -127.93828 37137 ft 524 kts 114°
2026-05-07 08:23 57.54425 -127.81273 37138 ft 523 kts 114°
2026-05-07 08:24 57.51663 -127.68740 37131 ft 523 kts 115°
2026-05-07 08:24 57.48891 -127.56239 37134 ft 524 kts 115°
2026-05-07 08:25 57.46116 -127.43795 37134 ft 523 kts 115°
2026-05-07 08:25 57.43318 -127.31322 37120 ft 524 kts 115°
2026-05-07 08:26 57.39092 -127.12626 37111 ft 524 kts 115°
2026-05-07 08:26 57.36262 -127.00193 37109 ft 524 kts 115°
2026-05-07 08:27 57.33413 -126.87759 37109 ft 524 kts 115°
2026-05-07 08:27 57.30555 -126.75342 37106 ft 525 kts 115°
2026-05-07 08:28 57.27709 -126.63073 37086 ft 522 kts 115°
2026-05-07 08:28 57.24839 -126.50746 37085 ft 521 kts 116°
2026-05-07 08:29 57.21962 -126.38477 37077 ft 521 kts 116°
2026-05-07 08:29 57.19074 -126.26224 37065 ft 520 kts 116°
2026-05-07 08:30 57.16172 -126.13984 37061 ft 521 kts 116°
2026-05-07 08:30 57.13258 -126.01767 37089 ft 521 kts 116°
2026-05-07 08:31 57.10325 -125.89519 37068 ft 524 kts 116°
2026-05-07 08:31 57.07367 -125.77268 37068 ft 524 kts 116°
2026-05-07 08:32 57.04423 -125.65117 37032 ft 524 kts 116°
2026-05-07 08:32 57.01443 -125.52899 37063 ft 525 kts 116°
2026-05-07 08:33 56.98453 -125.40706 37054 ft 525 kts 116°
2026-05-07 08:33 56.95448 -125.28511 37032 ft 525 kts 116°
2026-05-07 08:34 56.92431 -125.16352 37052 ft 523 kts 116°
2026-05-07 08:34 56.89408 -125.04221 37037 ft 523 kts 116°
2026-05-07 08:35 56.86379 -124.92139 37041 ft 523 kts 116°
2026-05-07 08:35 56.83334 -124.80062 37042 ft 524 kts 116°
2026-05-07 08:36 56.80273 -124.67975 37041 ft 525 kts 116°
2026-05-07 08:36 56.77193 -124.55910 37038 ft 525 kts 116°
2026-05-07 08:37 56.74131 -124.43932 37029 ft 525 kts 116°
2026-05-07 08:37 56.71031 -124.31907 37014 ft 525 kts 117°
2026-05-07 08:38 56.67915 -124.19876 37027 ft 526 kts 117°
2026-05-07 08:38 56.64790 -124.07873 37023 ft 525 kts 117°
2026-05-07 08:39 56.61653 -123.95889 37025 ft 525 kts 117°
2026-05-07 08:39 56.58504 -123.83932 37009 ft 525 kts 117°
2026-05-07 08:40 56.55348 -123.71990 37011 ft 525 kts 117°
2026-05-07 08:40 56.52179 -123.60076 37014 ft 525 kts 117°
2026-05-07 08:41 56.49019 -123.48260 37029 ft 524 kts 117°
2026-05-07 08:41 56.45827 -123.36377 37022 ft 524 kts 117°
2026-05-07 08:42 56.42625 -123.24530 37030 ft 524 kts 117°
2026-05-07 08:42 56.39419 -123.12728 37023 ft 524 kts 117°
2026-05-07 08:43 56.36198 -123.00919 37046 ft 525 kts 117°
2026-05-07 08:43 56.32965 -122.89145 37044 ft 524 kts 117°
2026-05-07 08:44 56.29719 -122.77370 37023 ft 526 kts 117°
2026-05-07 08:44 56.26455 -122.65597 37053 ft 525 kts 117°
2026-05-07 08:45 56.23180 -122.53845 37025 ft 528 kts 117°
2026-05-07 08:45 56.19885 -122.42080 37021 ft 527 kts 117°
2026-05-07 08:46 56.16604 -122.30425 37017 ft 526 kts 117°
2026-05-07 08:46 56.13285 -122.18688 37003 ft 528 kts 117°
2026-05-07 08:47 56.10069 -122.07385 36986 ft 527 kts 118°
2026-05-07 08:47 56.06732 -121.95703 36976 ft 527 kts 118°
2026-05-07 08:48 56.03381 -121.84040 36981 ft 527 kts 118°
2026-05-07 08:48 56.00023 -121.72404 36998 ft 528 kts 118°
2026-05-07 08:49 55.96637 -121.60729 36962 ft 529 kts 118°
2026-05-07 08:49 55.93245 -121.49099 36985 ft 528 kts 118°
2026-05-07 08:50 55.89845 -121.37490 36965 ft 528 kts 118°
2026-05-07 08:50 55.86440 -121.25926 36949 ft 527 kts 118°
2026-05-07 08:51 55.83016 -121.14358 36948 ft 529 kts 118°
2026-05-07 08:51 55.79578 -121.02794 36946 ft 528 kts 118°
2026-05-07 08:52 55.76134 -120.91270 36944 ft 528 kts 118°
2026-05-07 08:52 55.72697 -120.79823 36927 ft 528 kts 118°
2026-05-07 08:53 55.69231 -120.68339 36898 ft 528 kts 118°
2026-05-07 08:53 55.65763 -120.56898 36909 ft 527 kts 118°
2026-05-07 08:54 55.62282 -120.45472 36922 ft 527 kts 118°
2026-05-07 08:54 55.58803 -120.34112 36898 ft 522 kts 118°
2026-05-07 08:55 55.55339 -120.22850 36895 ft 520 kts 118°
2026-05-07 08:55 55.51873 -120.11637 36918 ft 520 kts 118°
2026-05-07 08:56 55.48404 -120.00463 36923 ft 520 kts 118°
2026-05-07 08:56 55.44921 -119.89304 36923 ft 519 kts 118°
2026-05-07 08:57 55.41429 -119.78161 36925 ft 519 kts 118°
2026-05-07 08:57 55.37950 -119.67115 36925 ft 519 kts 118°
2026-05-07 08:58 55.34443 -119.56032 36910 ft 519 kts 118°
2026-05-07 08:58 55.30920 -119.44945 36916 ft 519 kts 118°
2026-05-07 08:59 55.27392 -119.33899 36927 ft 519 kts 119°
2026-05-07 08:59 55.23855 -119.22871 36937 ft 519 kts 119°
2026-05-07 09:00 55.20310 -119.11871 36938 ft 519 kts 119°
2026-05-07 09:00 55.16709 -119.00922 36908 ft 518 kts 121°
2026-05-07 09:01 55.12978 -118.90144 36911 ft 519 kts 121°
2026-05-07 09:01 55.09219 -118.79380 36919 ft 519 kts 121°
2026-05-07 09:02 55.05456 -118.68651 36922 ft 519 kts 121°
2026-05-07 09:02 55.01682 -118.57920 36909 ft 519 kts 121°
2026-05-07 09:03 54.97912 -118.47273 36915 ft 520 kts 121°
2026-05-07 09:03 54.94112 -118.36563 36929 ft 520 kts 121°
2026-05-07 09:04 54.90309 -118.25907 36930 ft 518 kts 122°
2026-05-07 09:04 54.86503 -118.15280 36947 ft 518 kts 122°
2026-05-07 09:05 54.82689 -118.04682 36930 ft 518 kts 122°
2026-05-07 09:05 54.78869 -117.94107 36931 ft 518 kts 122°
2026-05-07 09:06 54.75034 -117.83542 36954 ft 518 kts 122°
2026-05-07 09:06 54.71192 -117.72998 36949 ft 518 kts 122°
2026-05-07 09:07 54.67341 -117.62479 36946 ft 518 kts 122°
2026-05-07 09:07 54.63480 -117.51974 36931 ft 518 kts 122°
2026-05-07 09:08 54.59612 -117.41497 36932 ft 518 kts 122°
2026-05-07 09:08 54.55757 -117.31098 36933 ft 518 kts 122°
2026-05-07 09:09 54.51866 -117.20648 36931 ft 518 kts 122°
2026-05-07 09:09 54.47971 -117.10225 36924 ft 518 kts 122°
2026-05-07 09:10 54.44064 -116.99820 36925 ft 518 kts 122°
2026-05-07 09:10 54.40780 -116.91105 36927 ft 519 kts 122°
2026-05-07 09:11 54.36854 -116.80729 36929 ft 519 kts 123°
2026-05-07 09:11 54.32915 -116.70360 36931 ft 519 kts 122°
2026-05-07 09:12 54.28992 -116.60076 36935 ft 519 kts 123°
2026-05-07 09:12 54.25037 -116.49752 36929 ft 519 kts 123°
2026-05-07 09:13 54.21067 -116.39433 36928 ft 519 kts 123°
2026-05-07 09:13 54.17096 -116.29151 36949 ft 519 kts 123°
2026-05-07 09:14 54.13134 -116.18935 36942 ft 515 kts 123°
2026-05-07 09:14 54.09171 -116.08760 36934 ft 515 kts 123°
2026-05-07 09:15 54.05203 -115.98611 36928 ft 515 kts 123°
2026-05-07 09:15 54.01227 -115.88485 36901 ft 514 kts 123°
2026-05-07 09:16 53.97255 -115.78409 36913 ft 513 kts 123°
2026-05-07 09:16 53.93280 -115.68367 36919 ft 512 kts 123°
2026-05-07 09:17 53.89294 -115.58335 36921 ft 513 kts 123°
2026-05-07 09:17 53.85304 -115.48334 36905 ft 513 kts 123°
2026-05-07 09:18 53.81301 -115.38341 36900 ft 513 kts 124°
2026-05-07 09:18 53.77296 -115.28380 36913 ft 510 kts 124°
2026-05-07 09:19 53.73290 -115.18463 36906 ft 511 kts 124°
2026-05-07 09:19 53.69279 -115.08565 36896 ft 511 kts 124°
2026-05-07 09:20 53.65263 -114.98699 36878 ft 511 kts 124°
2026-05-07 09:20 53.61261 -114.88900 36874 ft 511 kts 124°
2026-05-07 09:21 53.57221 -114.79053 36890 ft 511 kts 124°
2026-05-07 09:21 53.53177 -114.69230 36868 ft 511 kts 124°
2026-05-07 09:22 53.49120 -114.59415 36869 ft 511 kts 124°
2026-05-07 09:22 53.45059 -114.49629 36877 ft 511 kts 124°
2026-05-07 09:23 53.40983 -114.39845 36866 ft 511 kts 124°
2026-05-07 09:23 53.36921 -114.30133 36850 ft 507 kts 125°
2026-05-07 09:24 53.32874 -114.20492 36845 ft 506 kts 125°
2026-05-07 09:24 53.28817 -114.10866 36864 ft 506 kts 125°
2026-05-07 09:25 53.24752 -114.01255 36868 ft 506 kts 125°
2026-05-07 09:25 53.20681 -113.91669 36873 ft 506 kts 125°
2026-05-07 09:26 53.17100 -113.81627 36873 ft 504 kts 111°
2026-05-07 09:26 53.14844 -113.70656 36860 ft 504 kts 105°
2026-05-07 09:27 53.12404 -113.59720 36884 ft 505 kts 112°
2026-05-07 09:28 53.08604 -113.43417 36902 ft 503 kts 109°
2026-05-07 09:28 53.06025 -113.32603 36899 ft 503 kts 110°
2026-05-07 09:29 53.03501 -113.21767 36898 ft 503 kts 110°
2026-05-07 09:29 53.00957 -113.11030 36897 ft 503 kts 110°
2026-05-07 09:30 52.98379 -113.00168 36889 ft 502 kts 110°
2026-05-07 09:30 52.95823 -112.89445 36890 ft 502 kts 110°
2026-05-07 09:31 52.93245 -112.78702 36889 ft 501 kts 110°
2026-05-07 09:31 52.90664 -112.67981 36891 ft 501 kts 110°
2026-05-07 09:32 52.88072 -112.57280 36881 ft 501 kts 110°
2026-05-07 09:32 52.85468 -112.46573 36872 ft 501 kts 110°
2026-05-07 09:33 52.82853 -112.35881 36873 ft 501 kts 110°
2026-05-07 09:33 52.80246 -112.25271 36873 ft 501 kts 110°
2026-05-07 09:34 52.77597 -112.14542 36871 ft 501 kts 111°
2026-05-07 09:34 52.74977 -112.03981 36880 ft 501 kts 111°
2026-05-07 09:35 52.72326 -111.93347 36880 ft 501 kts 111°
2026-05-07 09:35 52.69666 -111.82728 36885 ft 500 kts 111°
2026-05-07 09:36 52.67002 -111.72141 36885 ft 500 kts 111°
2026-05-07 09:36 52.64324 -111.61552 36893 ft 500 kts 111°
2026-05-07 09:37 52.61662 -111.51073 36894 ft 500 kts 111°
2026-05-07 09:37 52.58971 -111.40530 36906 ft 499 kts 111°
2026-05-07 09:38 52.56271 -111.30003 36908 ft 500 kts 111°
2026-05-07 09:38 52.53564 -111.19497 36899 ft 499 kts 111°
2026-05-07 09:39 52.50849 -111.09008 36912 ft 499 kts 111°
2026-05-07 09:39 52.48123 -110.98526 36909 ft 499 kts 111°
2026-05-07 09:40 52.45390 -110.88067 36910 ft 499 kts 112°
2026-05-07 09:40 52.42645 -110.77612 36920 ft 499 kts 112°
2026-05-07 09:41 52.39894 -110.67179 36919 ft 499 kts 112°
2026-05-07 09:41 52.37133 -110.56755 36919 ft 499 kts 112°
2026-05-07 09:42 52.34375 -110.46390 36920 ft 500 kts 112°
2026-05-07 09:42 52.31594 -110.35987 36921 ft 500 kts 112°
2026-05-07 09:43 52.28801 -110.25589 36924 ft 499 kts 112°
2026-05-07 09:43 52.26002 -110.15213 36927 ft 499 kts 112°
2026-05-07 09:44 52.23196 -110.04859 36930 ft 499 kts 112°
2026-05-07 09:44 52.20377 -109.94500 36940 ft 500 kts 112°
2026-05-07 09:45 52.17549 -109.84164 36939 ft 500 kts 112°
2026-05-07 09:45 52.14710 -109.73828 36944 ft 500 kts 112°
2026-05-07 09:46 52.11864 -109.63516 36943 ft 500 kts 112°
2026-05-07 09:46 52.09006 -109.53205 36949 ft 499 kts 112°
2026-05-07 09:47 52.06141 -109.42912 36949 ft 499 kts 112°
2026-05-07 09:47 52.03270 -109.32645 36958 ft 500 kts 112°
2026-05-07 09:48 52.00403 -109.22436 36958 ft 500 kts 112°
2026-05-07 09:48 51.97509 -109.12178 36958 ft 500 kts 112°
2026-05-07 09:49 51.94609 -109.01943 36965 ft 500 kts 113°
2026-05-07 09:49 51.91715 -108.91770 36964 ft 499 kts 113°
2026-05-07 09:50 51.88796 -108.81561 36958 ft 500 kts 113°
2026-05-07 09:50 51.85873 -108.71371 36962 ft 500 kts 113°
2026-05-07 09:51 51.82937 -108.61187 36960 ft 500 kts 113°
2026-05-07 09:51 51.79991 -108.51011 36968 ft 500 kts 113°
2026-05-07 09:52 51.77036 -108.40849 36965 ft 500 kts 113°
2026-05-07 09:52 51.74076 -108.30710 36973 ft 500 kts 113°
2026-05-07 09:53 51.71103 -108.20571 37001 ft 500 kts 113°
2026-05-07 09:53 51.68097 -108.10361 37343 ft 508 kts 113°
2026-05-07 09:53 51.66575 -108.05208 37677 ft 510 kts 113°
2026-05-07 09:54 51.65047 -108.00050 38035 ft 512 kts 113°
2026-05-07 09:54 51.63509 -107.94866 38380 ft 514 kts 113°
2026-05-07 09:54 51.61963 -107.89668 38721 ft 515 kts 113°
2026-05-07 09:54 51.60415 -107.84473 38953 ft 513 kts 113°
2026-05-07 09:55 51.58888 -107.79361 38975 ft 512 kts 113°
2026-05-07 09:55 51.55802 -107.69057 38971 ft 510 kts 113°
2026-05-07 09:56 51.52714 -107.58796 38976 ft 510 kts 114°
2026-05-07 09:56 51.49621 -107.48557 38988 ft 511 kts 113°
2026-05-07 09:57 51.46510 -107.38305 38979 ft 511 kts 113°
2026-05-07 09:57 51.43391 -107.28070 38988 ft 511 kts 113°
2026-05-07 09:58 51.40263 -107.17848 38987 ft 511 kts 114°
2026-05-07 09:58 51.36597 -107.08083 38993 ft 514 kts 125°
2026-05-07 09:59 51.32279 -106.98971 38996 ft 514 kts 123°
2026-05-07 09:59 51.28181 -106.89603 38990 ft 516 kts 123°
2026-05-07 10:00 51.23943 -106.80409 38999 ft 518 kts 124°
2026-05-07 10:00 51.19743 -106.71084 39003 ft 518 kts 123°
2026-05-07 10:01 51.15491 -106.61806 39010 ft 518 kts 124°
2026-05-07 10:01 51.11252 -106.52531 39008 ft 518 kts 124°
2026-05-07 10:02 51.06996 -106.43272 39011 ft 518 kts 124°
2026-05-07 10:02 51.02740 -106.34043 39014 ft 518 kts 124°
2026-05-07 10:03 50.98471 -106.24814 39013 ft 518 kts 124°
2026-05-07 10:03 50.94192 -106.15604 39021 ft 519 kts 124°
2026-05-07 10:04 50.89897 -106.06385 39014 ft 520 kts 124°
2026-05-07 10:04 50.85624 -105.97251 39021 ft 520 kts 124°
2026-05-07 10:05 50.81310 -105.88057 39020 ft 520 kts 124°
2026-05-07 10:05 50.76989 -105.78884 39021 ft 520 kts 124°
2026-05-07 10:06 50.73366 -105.71215 39025 ft 520 kts 124°
2026-05-07 10:06 50.69055 -105.62122 39029 ft 521 kts 124°
2026-05-07 10:07 50.64711 -105.52992 39048 ft 521 kts 124°
2026-05-07 10:07 50.60343 -105.43840 39033 ft 522 kts 125°
2026-05-07 10:08 50.55750 -105.34985 39041 ft 523 kts 127°
2026-05-07 10:08 50.51138 -105.26121 39027 ft 524 kts 127°
2026-05-07 10:09 50.46487 -105.17305 39029 ft 524 kts 127°
2026-05-07 10:09 50.41855 -105.08487 39022 ft 524 kts 127°
2026-05-07 10:10 50.37229 -104.99757 38982 ft 524 kts 127°
2026-05-07 10:10 50.32569 -104.90961 38986 ft 525 kts 128°
2026-05-07 10:11 50.27895 -104.82189 38984 ft 526 kts 127°
2026-05-07 10:11 50.23212 -104.73417 38993 ft 526 kts 127°
2026-05-07 10:12 50.18516 -104.64658 39004 ft 526 kts 128°
2026-05-07 10:12 50.13816 -104.55915 39011 ft 526 kts 128°
2026-05-07 10:13 50.09108 -104.47190 39023 ft 526 kts 128°
2026-05-07 10:13 50.04391 -104.38478 39026 ft 526 kts 128°
2026-05-07 10:14 49.99667 -104.29781 39018 ft 526 kts 128°
2026-05-07 10:14 49.94939 -104.21106 39013 ft 526 kts 128°
2026-05-07 10:15 49.90217 -104.12470 39014 ft 524 kts 128°
2026-05-07 10:15 49.85491 -104.03857 39010 ft 524 kts 128°
2026-05-07 10:16 49.80765 -103.95270 39011 ft 524 kts 128°
2026-05-07 10:16 49.76029 -103.86694 39009 ft 524 kts 128°
2026-05-07 10:17 49.71291 -103.78143 39007 ft 524 kts 128°
2026-05-07 10:17 49.66541 -103.69599 39012 ft 524 kts 128°
2026-05-07 10:18 49.61819 -103.61131 39012 ft 524 kts 128°
2026-05-07 10:18 49.57061 -103.52630 39011 ft 523 kts 128°
2026-05-07 10:19 49.52298 -103.44143 39012 ft 524 kts 128°
2026-05-07 10:19 49.47524 -103.35668 39011 ft 524 kts 129°
2026-05-07 10:20 49.42751 -103.27219 39007 ft 524 kts 129°
2026-05-07 10:20 49.37962 -103.18771 39005 ft 524 kts 129°
2026-05-07 10:21 49.33171 -103.10346 39011 ft 524 kts 129°
2026-05-07 10:21 49.28368 -103.01927 39006 ft 525 kts 129°
2026-05-07 10:22 49.23557 -102.93522 38992 ft 525 kts 129°
2026-05-07 10:22 49.18737 -102.85128 38929 ft 525 kts 129°
2026-05-07 10:23 49.13907 -102.76744 38941 ft 525 kts 129°
2026-05-07 10:23 49.09106 -102.68435 38957 ft 525 kts 129°
2026-05-07 10:24 49.04237 -102.60036 38982 ft 525 kts 129°
2026-05-07 10:24 48.99419 -102.51752 38990 ft 526 kts 129°
2026-05-07 10:25 48.94561 -102.43427 38987 ft 526 kts 129°
2026-05-07 10:25 48.89696 -102.35115 39021 ft 526 kts 130°
2026-05-07 10:26 48.84826 -102.26819 38984 ft 527 kts 130°
2026-05-07 10:26 48.79935 -102.18517 38984 ft 527 kts 130°
2026-05-07 10:27 48.75039 -102.10231 38978 ft 527 kts 130°
2026-05-07 10:27 48.70143 -102.01970 38976 ft 527 kts 130°
2026-05-07 10:28 48.65231 -101.93709 38975 ft 529 kts 130°
2026-05-07 10:28 48.60303 -101.85449 38976 ft 529 kts 130°
2026-05-07 10:29 48.55372 -101.77207 38974 ft 529 kts 130°
2026-05-07 10:29 48.50424 -101.68964 38950 ft 530 kts 130°
2026-05-07 10:30 48.43012 -101.56665 38917 ft 531 kts 130°
2026-05-07 10:30 48.38044 -101.48453 38907 ft 531 kts 131°
2026-05-07 10:31 48.33067 -101.40253 38909 ft 531 kts 131°
2026-05-07 10:31 48.28086 -101.32070 38937 ft 531 kts 131°
2026-05-07 10:32 48.23432 -101.23512 38971 ft 528 kts 123°
2026-05-07 10:32 48.19151 -101.14563 38967 ft 529 kts 124°
2026-05-07 10:33 48.14738 -101.05714 38974 ft 530 kts 124°
2026-05-07 10:33 48.10384 -100.96809 38963 ft 530 kts 124°
2026-05-07 10:34 48.06011 -100.88013 38964 ft 530 kts 124°
2026-05-07 10:34 48.01598 -100.79099 38964 ft 530 kts 124°
2026-05-07 10:35 47.97223 -100.70324 38966 ft 530 kts 124°
2026-05-07 10:35 47.92822 -100.61510 38964 ft 530 kts 124°
2026-05-07 10:36 47.88422 -100.52732 38976 ft 528 kts 124°
2026-05-07 10:36 47.84022 -100.43981 38974 ft 528 kts 124°
2026-05-07 10:37 47.79615 -100.35243 38976 ft 528 kts 125°
2026-05-07 10:37 47.75198 -100.26516 38975 ft 528 kts 125°
2026-05-07 10:38 47.70778 -100.17807 38977 ft 529 kts 125°
2026-05-07 10:38 47.66338 -100.09090 39000 ft 528 kts 125°
2026-05-07 10:39 47.61941 -100.00483 39001 ft 527 kts 125°
2026-05-07 10:39 47.57503 -99.91824 38989 ft 527 kts 125°
2026-05-07 10:40 47.53058 -99.83179 39006 ft 528 kts 125°
2026-05-07 10:40 47.48609 -99.74552 39001 ft 528 kts 126°
2026-05-07 10:41 47.44149 -99.65931 39003 ft 528 kts 126°
2026-05-07 10:41 47.39682 -99.57323 38981 ft 527 kts 126°
2026-05-07 10:42 47.35227 -99.48767 38984 ft 526 kts 126°
2026-05-07 10:42 47.30762 -99.40217 38984 ft 526 kts 126°
2026-05-07 10:43 47.26293 -99.31687 38989 ft 526 kts 126°
2026-05-07 10:43 47.21848 -99.23228 38964 ft 526 kts 126°
2026-05-07 10:44 47.17363 -99.14720 38996 ft 527 kts 126°
2026-05-07 10:44 47.12872 -99.06226 38992 ft 526 kts 126°
2026-05-07 10:45 47.08369 -98.97736 38972 ft 526 kts 126°
2026-05-07 10:45 47.03863 -98.89267 38951 ft 526 kts 127°
2026-05-07 10:46 46.99352 -98.80815 38936 ft 527 kts 127°
2026-05-07 10:46 46.94831 -98.72369 38932 ft 527 kts 127°
2026-05-07 10:47 46.90305 -98.63939 38933 ft 527 kts 127°
2026-05-07 10:47 46.85770 -98.55520 38935 ft 527 kts 127°
2026-05-07 10:48 46.81259 -98.47169 38952 ft 528 kts 127°
2026-05-07 10:48 46.76702 -98.38759 38981 ft 528 kts 127°
2026-05-07 10:49 46.72138 -98.30361 38977 ft 528 kts 127°
2026-05-07 10:49 46.67567 -98.21977 38977 ft 528 kts 127°
2026-05-07 10:50 46.62986 -98.13601 38981 ft 529 kts 128°
2026-05-07 10:50 46.58405 -98.05247 39000 ft 528 kts 128°
2026-05-07 10:51 46.53819 -97.96911 39001 ft 527 kts 128°
2026-05-07 10:51 46.49238 -97.88610 39000 ft 527 kts 128°
2026-05-07 10:52 46.44645 -97.80312 39000 ft 527 kts 128°
2026-05-07 10:52 46.40081 -97.72089 38973 ft 526 kts 128°
2026-05-07 10:53 46.35483 -97.63831 38966 ft 527 kts 128°
2026-05-07 10:53 46.30877 -97.55582 38951 ft 527 kts 128°
2026-05-07 10:54 46.26262 -97.47342 38986 ft 527 kts 128°
2026-05-07 10:54 46.21645 -97.39124 38986 ft 527 kts 128°
2026-05-07 10:55 46.17019 -97.30913 38989 ft 527 kts 128°
2026-05-07 10:55 46.12411 -97.22757 38992 ft 528 kts 129°
2026-05-07 10:56 46.07770 -97.14567 39007 ft 528 kts 129°
2026-05-07 10:56 46.03121 -97.06389 39000 ft 528 kts 129°
2026-05-07 10:57 45.98465 -96.98221 39000 ft 528 kts 129°
2026-05-07 10:57 45.93806 -96.90072 38994 ft 529 kts 129°
2026-05-07 10:58 45.89126 -96.81910 38994 ft 528 kts 129°
2026-05-07 10:58 45.84454 -96.73786 38996 ft 528 kts 129°
2026-05-07 10:59 45.80560 -96.67034 39002 ft 528 kts 129°
2026-05-07 10:59 45.75884 -96.58944 38997 ft 527 kts 130°
2026-05-07 11:00 45.70452 -96.49580 38976 ft 526 kts 130°
2026-05-07 11:00 45.65771 -96.41533 39002 ft 526 kts 130°
2026-05-07 11:01 45.61844 -96.34801 38992 ft 526 kts 130°
2026-05-07 11:01 45.57190 -96.26843 38982 ft 527 kts 130°
2026-05-07 11:02 45.52488 -96.18829 38984 ft 526 kts 130°
2026-05-07 11:02 45.47786 -96.10832 38977 ft 525 kts 130°
2026-05-07 11:03 45.43090 -96.02872 38977 ft 525 kts 130°
2026-05-07 11:03 45.38379 -95.94908 38983 ft 526 kts 130°
2026-05-07 11:04 45.33661 -95.86955 38980 ft 526 kts 131°
2026-05-07 11:04 45.28938 -95.79017 38994 ft 526 kts 131°
2026-05-07 11:05 45.24216 -95.71102 38993 ft 525 kts 131°
2026-05-07 11:05 45.19485 -95.63194 38983 ft 526 kts 131°
2026-05-07 11:06 45.14742 -95.55290 39011 ft 526 kts 131°
2026-05-07 11:06 45.09994 -95.47398 39003 ft 526 kts 131°
2026-05-07 11:07 45.05242 -95.39522 38993 ft 527 kts 131°
2026-05-07 11:07 45.00461 -95.31621 39001 ft 528 kts 132°
2026-05-07 11:08 44.95684 -95.23748 39007 ft 527 kts 132°
2026-05-07 11:08 44.90947 -95.15962 38994 ft 526 kts 132°
2026-05-07 11:09 44.86176 -95.08140 38977 ft 526 kts 132°
2026-05-07 11:09 44.81393 -95.00327 38976 ft 526 kts 132°
2026-05-07 11:10 44.76612 -94.92532 38983 ft 525 kts 132°
2026-05-07 11:10 44.71829 -94.84758 38992 ft 525 kts 132°
2026-05-07 11:11 44.67046 -94.77004 39007 ft 525 kts 133°
2026-05-07 11:11 44.62255 -94.69261 39019 ft 525 kts 133°
2026-05-07 11:12 44.57457 -94.61525 39021 ft 525 kts 133°
2026-05-07 11:12 44.52653 -94.53803 39019 ft 525 kts 133°
2026-05-07 11:13 44.47872 -94.46139 39001 ft 527 kts 133°
2026-05-07 11:13 44.43055 -94.38434 38999 ft 526 kts 133°
2026-05-07 11:14 44.38228 -94.30738 39003 ft 526 kts 133°
2026-05-07 11:14 44.33397 -94.23055 38994 ft 526 kts 133°
2026-05-07 11:15 44.28527 -94.15332 39015 ft 530 kts 134°
2026-05-07 11:15 44.23658 -94.07631 39009 ft 529 kts 134°
2026-05-07 11:16 44.18791 -93.99954 39006 ft 528 kts 134°
2026-05-07 11:16 44.13922 -93.92295 38998 ft 530 kts 134°
2026-05-07 11:17 44.09017 -93.84601 39002 ft 530 kts 134°
2026-05-07 11:17 44.04123 -93.76942 39016 ft 530 kts 134°
2026-05-07 11:18 43.99259 -93.69353 39018 ft 529 kts 134°
2026-05-07 11:18 43.94352 -93.61718 39007 ft 532 kts 134°
2026-05-07 11:19 43.89421 -93.54063 39007 ft 531 kts 134°
2026-05-07 11:19 43.84495 -93.46439 38980 ft 531 kts 134°
2026-05-07 11:20 43.79570 -93.38835 38971 ft 530 kts 134°
2026-05-07 11:20 43.74627 -93.31226 38981 ft 533 kts 135°
2026-05-07 11:21 43.69674 -93.23620 38974 ft 532 kts 135°
2026-05-07 11:21 43.64717 -93.16029 38983 ft 531 kts 135°
2026-05-07 11:22 43.59761 -93.08460 38975 ft 531 kts 135°
2026-05-07 11:22 43.54811 -93.00921 38992 ft 534 kts 135°
2026-05-07 11:23 43.49833 -92.93355 38995 ft 533 kts 135°
2026-05-07 11:23 43.44848 -92.85804 38997 ft 532 kts 135°
2026-05-07 11:24 43.39864 -92.78271 38999 ft 532 kts 135°
2026-05-07 11:24 43.34877 -92.70755 38987 ft 533 kts 135°
2026-05-07 11:25 43.29881 -92.63242 38985 ft 531 kts 135°
2026-05-07 11:25 43.24888 -92.55758 38983 ft 531 kts 135°
2026-05-07 11:26 43.19896 -92.48291 38959 ft 531 kts 135°
2026-05-07 11:26 43.14900 -92.40841 38975 ft 531 kts 136°
2026-05-07 11:27 43.09889 -92.33385 38979 ft 531 kts 136°
2026-05-07 11:27 43.04887 -92.25964 39001 ft 530 kts 136°
2026-05-07 11:28 42.99885 -92.18561 38989 ft 530 kts 136°
2026-05-07 11:28 42.94870 -92.11158 39009 ft 532 kts 136°
2026-05-07 11:29 42.89877 -92.03806 39010 ft 531 kts 136°
2026-05-07 11:29 42.84848 -91.96421 39001 ft 531 kts 136°
2026-05-07 11:30 42.79822 -91.89059 39000 ft 531 kts 136°
2026-05-07 11:30 42.74795 -91.81714 39022 ft 530 kts 136°
2026-05-07 11:31 42.69889 -91.74564 39025 ft 530 kts 136°
2026-05-07 11:31 42.64853 -91.67243 39028 ft 530 kts 136°
2026-05-07 11:32 42.57292 -91.56286 39021 ft 531 kts 136°
2026-05-07 11:33 42.52249 -91.49000 39031 ft 529 kts 137°
2026-05-07 11:33 42.47214 -91.41746 39024 ft 528 kts 137°
2026-05-07 11:34 42.42211 -91.34555 39014 ft 528 kts 137°
2026-05-07 11:34 42.37180 -91.27341 38995 ft 527 kts 137°
2026-05-07 11:35 42.32146 -91.20143 38987 ft 527 kts 137°
2026-05-07 11:35 42.27109 -91.12956 38988 ft 526 kts 137°
2026-05-07 11:36 42.22085 -91.05808 38984 ft 525 kts 137°
2026-05-07 11:36 42.17059 -90.98673 39044 ft 524 kts 138°
2026-05-07 11:37 42.12033 -90.91557 39046 ft 524 kts 138°
2026-05-07 11:37 42.07002 -90.84449 39041 ft 524 kts 138°
2026-05-07 11:38 42.01965 -90.77353 39038 ft 524 kts 138°
2026-05-07 11:38 41.96928 -90.70270 39035 ft 523 kts 139°
2026-05-07 11:39 41.91912 -90.63241 39034 ft 524 kts 139°
2026-05-07 11:39 41.86869 -90.56184 39042 ft 524 kts 139°
2026-05-07 11:40 41.81817 -90.49136 39040 ft 524 kts 139°
2026-05-07 11:40 41.76768 -90.42107 39006 ft 523 kts 139°
2026-05-07 11:41 41.71687 -90.35052 39055 ft 525 kts 139°
2026-05-07 11:41 41.66631 -90.28046 39049 ft 523 kts 140°
2026-05-07 11:42 41.61572 -90.21057 39048 ft 523 kts 140°
2026-05-07 11:42 41.56507 -90.14072 39039 ft 522 kts 140°
2026-05-07 11:43 41.51487 -90.07170 39042 ft 522 kts 140°
2026-05-07 11:43 41.46428 -90.00227 39042 ft 521 kts 140°
2026-05-07 11:44 41.41383 -89.93321 39048 ft 519 kts 141°
2026-05-07 11:44 41.36339 -89.86436 39048 ft 519 kts 141°
2026-05-07 11:45 41.31289 -89.79554 39045 ft 520 kts 141°
2026-05-07 11:45 41.26231 -89.72682 39046 ft 520 kts 141°
2026-05-07 11:46 41.21165 -89.65811 39048 ft 520 kts 141°
2026-05-07 11:46 41.16095 -89.58956 39048 ft 520 kts 142°
2026-05-07 11:47 41.10961 -89.52332 39055 ft 522 kts 143°
2026-05-07 11:47 41.05710 -89.45537 39059 ft 523 kts 144°
2026-05-07 11:48 41.00514 -89.38880 39062 ft 524 kts 143°
2026-05-07 11:48 40.95287 -89.32161 39064 ft 524 kts 143°
2026-05-07 11:49 40.90048 -89.25467 39026 ft 524 kts 144°
2026-05-07 11:49 40.84749 -89.18703 39065 ft 530 kts 144°
2026-05-07 11:50 40.79444 -89.11943 39074 ft 530 kts 144°
2026-05-07 11:50 40.74138 -89.05206 39069 ft 530 kts 144°
2026-05-07 11:51 40.68837 -88.98484 39076 ft 530 kts 144°
2026-05-07 11:51 40.63559 -88.91812 39075 ft 530 kts 144°
2026-05-07 11:52 40.58236 -88.85094 39090 ft 530 kts 144°
2026-05-07 11:52 40.52912 -88.78394 39075 ft 529 kts 145°
2026-05-07 11:53 40.47586 -88.71704 39076 ft 529 kts 145°
2026-05-07 11:53 40.42238 -88.65007 39065 ft 533 kts 145°
2026-05-07 11:54 40.36883 -88.58308 39068 ft 532 kts 145°
2026-05-07 11:54 40.31519 -88.51622 39071 ft 532 kts 145°
2026-05-07 11:55 40.26156 -88.44945 39076 ft 531 kts 146°
2026-05-07 11:55 40.20828 -88.38333 39073 ft 532 kts 146°
2026-05-07 11:56 40.15463 -88.31688 39074 ft 532 kts 146°
2026-05-07 11:56 40.10083 -88.25038 39070 ft 531 kts 146°
2026-05-07 11:57 40.05612 -88.19526 39078 ft 531 kts 146°
2026-05-07 11:57 40.00236 -88.12908 39072 ft 530 kts 147°
2026-05-07 11:58 39.94854 -88.06301 39072 ft 532 kts 147°
2026-05-07 11:58 39.89463 -87.99698 39071 ft 532 kts 147°
2026-05-07 11:59 39.84071 -87.93107 39075 ft 532 kts 147°
2026-05-07 11:59 39.78674 -87.86525 39080 ft 531 kts 147°
2026-05-07 12:00 39.73308 -87.79998 39083 ft 532 kts 148°
2026-05-07 12:00 39.67904 -87.73434 39086 ft 532 kts 148°
2026-05-07 12:01 39.62477 -87.66865 38950 ft 537 kts 149°
2026-05-07 12:01 39.59729 -87.63549 38367 ft 541 kts 149°
2026-05-07 12:01 39.56990 -87.60231 37776 ft 539 kts 149°
2026-05-07 12:01 39.54256 -87.56918 37120 ft 534 kts 150°
2026-05-07 12:02 39.51546 -87.53652 36525 ft 531 kts 150°
2026-05-07 12:02 39.48846 -87.50392 35911 ft 533 kts 148°
2026-05-07 12:02 39.46224 -87.46991 35266 ft 535 kts 148°
2026-05-07 12:02 39.43592 -87.43570 34597 ft 535 kts 148°
2026-05-07 12:03 39.40968 -87.40181 33902 ft 534 kts 148°
2026-05-07 12:03 39.38336 -87.36797 33194 ft 532 kts 148°
2026-05-07 12:03 39.35713 -87.33418 32480 ft 532 kts 147°
2026-05-07 12:03 39.33091 -87.30030 31773 ft 532 kts 147°
2026-05-07 12:04 39.30477 -87.26662 31043 ft 531 kts 148°
2026-05-07 12:04 39.27888 -87.23346 30295 ft 531 kts 147°
2026-05-07 12:04 39.25260 -87.19977 29461 ft 531 kts 147°
2026-05-07 12:04 39.22648 -87.16618 28672 ft 531 kts 146°
2026-05-07 12:05 39.20040 -87.13269 27880 ft 526 kts 146°
2026-05-07 12:05 39.17466 -87.09971 27091 ft 517 kts 146°
2026-05-07 12:05 39.14936 -87.06738 26313 ft 508 kts 146°
2026-05-07 12:05 39.12447 -87.03565 25548 ft 499 kts 146°
2026-05-07 12:06 39.09999 -87.00444 24790 ft 492 kts 146°
2026-05-07 12:06 39.07581 -86.97366 24025 ft 488 kts 145°
2026-05-07 12:06 39.05183 -86.94315 23362 ft 481 kts 145°
2026-05-07 12:06 39.02817 -86.91303 23085 ft 476 kts 145°
2026-05-07 12:07 39.00439 -86.88290 23091 ft 481 kts 145°
2026-05-07 12:07 38.98030 -86.85350 23094 ft 472 kts 151°
2026-05-07 12:07 38.95369 -86.83107 23101 ft 453 kts 165°
2026-05-07 12:07 38.92486 -86.81723 23095 ft 433 kts 178°
2026-05-07 12:08 38.89571 -86.81260 23097 ft 413 kts 191°
2026-05-07 12:08 38.86793 -86.81704 23108 ft 394 kts 205°
2026-05-07 12:08 38.84314 -86.82987 23065 ft 377 kts 218°
2026-05-07 12:08 38.82264 -86.85018 23095 ft 369 kts 232°
2026-05-07 12:09 38.80771 -86.87623 23104 ft 360 kts 245°
2026-05-07 12:09 38.79927 -86.90622 23125 ft 358 kts 258°
2026-05-07 12:09 38.79787 -86.93814 23105 ft 362 kts 272°
2026-05-07 12:09 38.80364 -86.96968 23110 ft 369 kts 285°
2026-05-07 12:10 38.81640 -86.99890 23109 ft 383 kts 299°
2026-05-07 12:10 38.83540 -87.02360 23111 ft 399 kts 312°
2026-05-07 12:10 38.85978 -87.04219 23156 ft 418 kts 325°
2026-05-07 12:10 38.88820 -87.05320 23113 ft 437 kts 338°
2026-05-07 12:11 38.91838 -87.05794 23061 ft 446 kts 343°
2026-05-07 12:11 38.94944 -87.06023 22823 ft 453 kts 351°
2026-05-07 12:11 38.98124 -87.05439 22678 ft 472 kts
2026-05-07 12:11 39.01240 -87.03937 22530 ft 488 kts 18°
2026-05-07 12:12 39.04136 -87.01567 22266 ft 500 kts 31°
2026-05-07 12:12 39.06642 -86.98426 21941 ft 508 kts 45°
2026-05-07 12:12 39.08621 -86.94643 21661 ft 512 kts 59°
2026-05-07 12:12 39.09961 -86.90389 21409 ft 514 kts 73°
2026-05-07 12:13 39.10590 -86.85869 21235 ft 512 kts 88°
2026-05-07 12:13 39.10483 -86.81312 21100 ft 507 kts 101°
2026-05-07 12:13 39.09689 -86.76940 20595 ft 496 kts 115°
2026-05-07 12:13 39.08238 -86.73004 20161 ft 478 kts 130°
2026-05-07 12:14 39.06197 -86.69736 20098 ft 462 kts 144°
2026-05-07 12:14 39.03704 -86.67243 20103 ft 445 kts 159°
2026-05-07 12:14 39.00949 -86.65649 20101 ft 426 kts 174°
2026-05-07 12:14 38.98107 -86.65006 20103 ft 406 kts 188°
2026-05-07 12:15 38.95370 -86.65311 20101 ft 386 kts 203°
2026-05-07 12:15 38.92920 -86.66500 20107 ft 369 kts 218°
2026-05-07 12:15 38.90921 -86.68450 20105 ft 355 kts 232°
2026-05-07 12:15 38.89510 -86.70987 20105 ft 347 kts 246°
2026-05-07 12:16 38.88770 -86.73915 20104 ft 344 kts 260°
2026-05-07 12:16 38.88582 -86.76932 20105 ft 345 kts 268°
2026-05-07 12:16 38.88671 -86.80018 20107 ft 347 kts 272°
2026-05-07 12:16 38.89031 -86.83088 20097 ft 351 kts 280°
2026-05-07 12:17 38.89920 -86.86031 20099 ft 357 kts 289°
2026-05-07 12:17 38.91035 -86.88889 20096 ft 360 kts 293°
2026-05-07 12:17 38.92543 -86.91503 20108 ft 373 kts 306°
2026-05-07 12:17 38.94585 -86.93652 20100 ft 384 kts 315°
2026-05-07 12:18 38.96816 -86.95574 20097 ft 386 kts 316°
2026-05-07 12:18 38.99032 -86.97505 20099 ft 384 kts 316°
2026-05-07 12:18 39.01474 -86.99078 20096 ft 403 kts 330°
2026-05-07 12:18 39.04285 -86.99818 20098 ft 424 kts 345°
2026-05-07 12:19 39.07293 -86.99636 20097 ft 443 kts 360°
2026-05-07 12:19 39.10306 -86.98500 20096 ft 460 kts 14°
2026-05-07 12:19 39.13120 -86.96439 20106 ft 475 kts 28°
2026-05-07 12:19 39.15591 -86.93525 20094 ft 488 kts 43°
2026-05-07 12:20 39.17552 -86.89909 20093 ft 498 kts 58°
2026-05-07 12:20 39.18883 -86.85778 20104 ft 502 kts 72°
2026-05-07 12:20 39.19506 -86.81350 20097 ft 503 kts 87°
2026-05-07 12:20 39.19384 -86.76870 20098 ft 498 kts 102°
2026-05-07 12:21 39.18528 -86.72585 20108 ft 490 kts 116°
2026-05-07 12:21 39.17008 -86.68730 20100 ft 478 kts 131°
2026-05-07 12:21 39.14917 -86.65495 20105 ft 462 kts 146°
2026-05-07 12:21 39.12402 -86.63052 20099 ft 445 kts 160°
2026-05-07 12:22 39.09629 -86.61513 20106 ft 425 kts 175°
2026-05-07 12:22 39.06821 -86.60933 20073 ft 405 kts 189°
2026-05-07 12:22 39.04091 -86.61291 20102 ft 387 kts 204°
2026-05-07 12:22 39.01660 -86.62519 20103 ft 368 kts 218°
2026-05-07 12:23 38.99611 -86.64416 20101 ft 359 kts 227°
2026-05-07 12:23 38.97837 -86.66644 20102 ft 355 kts 233°
2026-05-07 12:23 38.96273 -86.69075 20100 ft 351 kts 238°
2026-05-07 12:23 38.94912 -86.71669 20099 ft 349 kts 243°
2026-05-07 12:24 38.93753 -86.74394 20100 ft 348 kts 246°
2026-05-07 12:24 38.92739 -86.77207 20099 ft 346 kts 250°
2026-05-07 12:24 38.92047 -86.80158 20102 ft 345 kts 260°
2026-05-07 12:24 38.91833 -86.83223 20098 ft 345 kts 265°
2026-05-07 12:25 38.91748 -86.86303 20101 ft 346 kts 270°
2026-05-07 12:25 38.92181 -86.89359 20108 ft 353 kts 284°
2026-05-07 12:25 38.93333 -86.92189 20102 ft 365 kts 298°
2026-05-07 12:25 38.95135 -86.94571 20103 ft 380 kts 311°
2026-05-07 12:26 38.97292 -86.96565 20103 ft 384 kts 316°
2026-05-07 12:26 38.99558 -86.98419 20101 ft 392 kts 322°
2026-05-07 12:26 39.02188 -86.99641 20101 ft 412 kts 337°
2026-05-07 12:26 39.05100 -86.99980 20096 ft 432 kts 352°
2026-05-07 12:27 39.08131 -86.99376 20104 ft 451 kts
2026-05-07 12:27 39.11083 -86.97823 20107 ft 466 kts 20°
2026-05-07 12:27 39.13765 -86.95372 20095 ft 481 kts 35°
2026-05-07 12:27 39.16022 -86.92129 20094 ft 494 kts 50°
2026-05-07 12:28 39.17717 -86.88252 20105 ft 500 kts 64°
2026-05-07 12:28 39.18733 -86.84004 20100 ft 503 kts 79°
2026-05-07 12:28 39.19032 -86.79530 20099 ft 502 kts 94°
2026-05-07 12:28 39.18586 -86.75100 20103 ft 495 kts 108°
2026-05-07 12:29 39.17429 -86.70965 20107 ft 486 kts 123°
2026-05-07 12:29 39.15644 -86.67352 20103 ft 472 kts 137°
2026-05-07 12:29 39.13351 -86.64447 20104 ft 455 kts 152°
2026-05-07 12:29 39.10692 -86.62381 20110 ft 437 kts 166°
2026-05-07 12:30 39.07869 -86.61255 20101 ft 417 kts 181°
2026-05-07 12:30 39.05052 -86.61094 20102 ft 397 kts 196°
2026-05-07 12:30 39.02405 -86.61782 20098 ft 385 kts 204°
2026-05-07 12:30 38.99793 -86.62571 20077 ft 386 kts 202°
2026-05-07 12:31 38.97182 -86.63275 19560 ft 382 kts 201°
2026-05-07 12:31 38.94592 -86.63976 18779 ft 378 kts 202°
2026-05-07 12:31 38.92034 -86.64709 17889 ft 375 kts 202°
2026-05-07 12:31 38.89492 -86.65447 16969 ft 373 kts 201°
2026-05-07 12:32 38.86989 -86.66153 16150 ft 372 kts 200°
2026-05-07 12:32 38.84509 -86.66837 16279 ft 368 kts 200°
2026-05-07 12:32 38.81955 -86.67566 16306 ft 378 kts 201°
2026-05-07 12:32 38.79388 -86.68290 16313 ft 378 kts 201°
2026-05-07 12:33 38.74429 -86.69320 16296 ft 348 kts 190°
2026-05-07 12:33 38.72003 -86.69161 16292 ft 352 kts 183°
2026-05-07 12:33 38.69576 -86.68600 16300 ft 358 kts 175°
2026-05-07 12:34 38.67197 -86.67501 16085 ft 369 kts 164°
2026-05-07 12:34 38.64916 -86.65967 15697 ft 370 kts 159°
2026-05-07 12:34 38.62679 -86.64375 15304 ft 367 kts 161°
2026-05-07 12:34 38.60399 -86.62964 14906 ft 361 kts 165°
2026-05-07 12:35 38.58104 -86.61682 14515 ft 362 kts 163°
2026-05-07 12:35 38.55981 -86.59871 14128 ft 375 kts 143°
2026-05-07 12:35 38.54217 -86.57394 13716 ft 376 kts 133°
2026-05-07 12:35 38.52628 -86.54735 13301 ft 377 kts 131°
2026-05-07 12:36 38.51035 -86.52097 12893 ft 372 kts 134°
2026-05-07 12:36 38.49346 -86.49621 12495 ft 367 kts 137°
2026-05-07 12:36 38.47659 -86.47197 12090 ft 364 kts 135°
2026-05-07 12:36 38.46053 -86.44711 11703 ft 361 kts 133°
2026-05-07 12:37 38.44510 -86.42275 11312 ft 355 kts 133°
2026-05-07 12:37 38.42949 -86.39882 10917 ft 344 kts 134°
2026-05-07 12:37 38.41442 -86.37604 10553 ft 328 kts 134°
2026-05-07 12:37 38.40006 -86.35425 10207 ft 315 kts 133°
2026-05-07 12:38 38.38625 -86.33324 9858 ft 304 kts 133°
2026-05-07 12:38 38.37291 -86.31298 9509 ft 293 kts 133°
2026-05-07 12:38 38.36000 -86.29343 9211 ft 284 kts 133°
2026-05-07 12:38 38.34749 -86.27446 8895 ft 274 kts 133°
2026-05-07 12:39 38.33551 -86.25630 8602 ft 262 kts 133°
2026-05-07 12:39 38.32392 -86.23890 8322 ft 253 kts 132°
2026-05-07 12:39 38.31273 -86.22214 8045 ft 244 kts 132°
2026-05-07 12:39 38.30149 -86.20530 7816 ft 261 kts 131°
2026-05-07 12:40 38.28964 -86.18751 7555 ft 265 kts 131°
2026-05-07 12:40 38.27763 -86.16945 7260 ft 268 kts 131°
2026-05-07 12:40 38.26574 -86.15163 7008 ft 265 kts 131°
2026-05-07 12:40 38.25404 -86.13398 6990 ft 264 kts 131°
2026-05-07 12:41 38.24223 -86.11611 7013 ft 264 kts 131°
2026-05-07 12:41 38.23040 -86.09823 7024 ft 264 kts 131°
2026-05-07 12:41 38.21848 -86.08029 6827 ft 267 kts 131°
2026-05-07 12:41 38.20634 -86.06202 6431 ft 273 kts 130°
2026-05-07 12:42 38.19401 -86.04344 6083 ft 276 kts 130°
2026-05-07 12:42 38.18176 -86.02497 6009 ft 268 kts 130°
2026-05-07 12:42 38.16997 -86.00716 5992 ft 261 kts 130°
2026-05-07 12:42 38.15831 -85.98958 5989 ft 260 kts 130°
2026-05-07 12:43 38.14687 -85.97235 5985 ft 250 kts 130°
2026-05-07 12:43 38.13590 -85.95583 5989 ft 239 kts 130°
2026-05-07 12:43 38.12539 -85.94002 6007 ft 227 kts 130°
2026-05-07 12:43 38.11574 -85.92551 5984 ft 203 kts 130°
2026-05-07 12:44 38.10706 -85.91253 5969 ft 188 kts 130°
2026-05-07 12:44 38.09871 -85.89988 5982 ft 187 kts 130°
2026-05-07 12:44 38.09038 -85.88738 5992 ft 185 kts 130°
2026-05-07 12:44 38.08216 -85.87503 5985 ft 186 kts 130°
2026-05-07 12:45 38.07347 -85.86200 6014 ft 205 kts 130°
2026-05-07 12:45 38.06414 -85.84799 6014 ft 208 kts 130°
2026-05-07 12:45 38.05464 -85.83375 5986 ft 211 kts 130°
2026-05-07 12:45 38.04516 -85.81953 5992 ft 212 kts 130°
2026-05-07 12:46 38.03564 -85.80527 6009 ft 212 kts 130°
2026-05-07 12:46 38.02579 -85.79146 5986 ft 212 kts 141°
2026-05-07 12:46 38.01264 -85.78383 6006 ft 210 kts 166°
2026-05-07 12:46 37.99848 -85.77967 5999 ft 209 kts 169°
2026-05-07 12:47 37.98433 -85.77545 6003 ft 208 kts 167°
2026-05-07 12:47 37.97026 -85.77070 6001 ft 209 kts 166°
2026-05-07 12:47 37.95622 -85.76596 5988 ft 210 kts 167°
2026-05-07 12:47 37.94200 -85.76309 5955 ft 206 kts 189°
2026-05-07 12:48 37.92865 -85.76883 5996 ft 203 kts 208°
2026-05-07 12:48 37.91598 -85.77665 5992 ft 202 kts 210°
2026-05-07 12:48 37.90337 -85.78470 5992 ft 202 kts 210°
2026-05-07 12:48 37.89081 -85.79273 5993 ft 202 kts 210°
2026-05-07 12:49 37.87839 -85.80067 5979 ft 202 kts 210°
2026-05-07 12:49 37.86575 -85.80875 5979 ft 204 kts 210°
2026-05-07 12:49 37.85311 -85.81683 5959 ft 200 kts 210°
2026-05-07 12:49 37.84062 -85.82482 5464 ft 202 kts 208°
2026-05-07 12:50 37.82686 -85.82819 5006 ft 207 kts 174°
2026-05-07 12:50 37.81381 -85.82097 4577 ft 207 kts 138°
2026-05-07 12:50 37.80635 -85.80590 4156 ft 202 kts 101°
2026-05-07 12:50 37.80710 -85.78885 3736 ft 193 kts 65°
2026-05-07 12:51 37.81539 -85.77629 3350 ft 186 kts 29°
2026-05-07 12:51 37.82693 -85.76952 3018 ft 180 kts 21°
2026-05-07 12:51 37.83855 -85.76379 2994 ft 183 kts 20°
2026-05-07 12:51 37.85025 -85.75818 2990 ft 180 kts 19°
2026-05-07 12:52 37.86205 -85.75253 2992 ft 179 kts 20°
2026-05-07 12:52 37.87374 -85.74690 2994 ft 181 kts 20°
2026-05-07 12:52 37.88547 -85.74118 2993 ft 180 kts 19°
2026-05-07 12:52 37.89714 -85.73533 2990 ft 181 kts 20°
2026-05-07 12:53 37.90488 -85.73146 2991 ft 181 kts 20°
2026-05-07 12:53 37.91655 -85.72560 2988 ft 180 kts 19°
2026-05-07 12:53 37.93126 -85.71819 2967 ft 165 kts 20°
2026-05-07 12:53 37.94190 -85.71280 2979 ft 164 kts 20°
2026-05-07 12:54 37.95248 -85.70745 2973 ft 164 kts 20°
2026-05-07 12:54 37.96301 -85.70208 2976 ft 164 kts 20°
2026-05-07 12:54 37.97000 -85.69856 2983 ft 163 kts 20°
2026-05-07 12:54 37.98067 -85.69320 2996 ft 161 kts 20°
2026-05-07 12:55 37.99041 -85.68845 2969 ft 144 kts 15°
2026-05-07 12:55 38.00012 -85.68842 2997 ft 141 kts 353°
2026-05-07 12:55 38.00966 -85.69083 2983 ft 137 kts 349°
2026-05-07 12:55 38.01894 -85.69361 2986 ft 137 kts 347°
2026-05-07 12:56 38.02804 -85.69640 2994 ft 130 kts 346°
2026-05-07 12:56 38.03654 -85.69924 2981 ft 124 kts 346°
2026-05-07 12:56 38.04480 -85.70196 2850 ft 120 kts 346°
2026-05-07 12:56 38.05286 -85.70463 2689 ft 120 kts 346°
2026-05-07 12:57 38.06081 -85.70753 2570 ft 119 kts 345°
2026-05-07 12:57 38.06879 -85.71037 2434 ft 119 kts 346°
2026-05-07 12:57 38.07672 -85.71311 2149 ft 119 kts 347°
2026-05-07 12:57 38.08446 -85.71596 1927 ft 114 kts 347°
2026-05-07 12:58 38.09230 -85.71881 1834 ft 118 kts 347°
2026-05-07 12:58 38.10022 -85.72144 1760 ft 119 kts 349°
2026-05-07 12:58 38.10828 -85.72384 1681 ft 120 kts 349°
2026-05-07 12:58 38.11637 -85.72618 1573 ft 120 kts 349°
2026-05-07 12:59 38.12447 -85.72839 1382 ft 120 kts 348°
2026-05-07 12:59 38.13271 -85.73100 1085 ft 121 kts 346°
2026-05-07 12:59 38.14079 -85.73387 831 ft 120 kts 346°
2026-05-07 12:59 38.14880 -85.73655 643 ft 118 kts 348°
2026-05-07 13:00 38.15660 -85.73879 499 ft 111 kts 348°
2026-05-07 13:00 38.16310 -85.74080 476 ft 77 kts 345°
2026-05-07 13:00 38.16715 -85.74206 483 ft 44 kts 347°
2026-05-07 13:00 38.16954 -85.74283 482 ft 27 kts 345°
2026-05-07 13:01 38.17093 -85.74331 483 ft 14 kts 344°
2026-05-07 13:01 38.17136 -85.74346 484 ft 0 kts 345°
2026-05-07 13:02 38.17191 -85.74363 485 ft 18 kts 350°
2026-05-07 13:02 38.17349 -85.74346 486 ft 28 kts 15°
2026-05-07 13:02 38.17510 -85.74337 492 ft 20 kts 346°
2026-05-07 13:02 38.17646 -85.74380 501 ft 21 kts 345°
2026-05-07 13:03 38.17766 -85.74411 501 ft 12 kts 343°
2026-05-07 13:03 38.17839 -85.74433 503 ft 7 kts
2026-05-07 13:03 38.17864 -85.74405 503 ft 4 kts 58°
2026-05-07 13:03 38.17869 -85.74388 503 ft 0 kts 78°
2026-05-07 13:04 38.17868 -85.74381 503 ft 2 kts 95°
2026-05-07 13:04 38.17853 -85.74355 502 ft 7 kts 136°
2026-05-07 13:04 38.17782 -85.74267 501 ft 20 kts 133°
2026-05-07 13:04 38.17705 -85.74094 501 ft 25 kts 112°
2026-05-07 13:05 38.17644 -85.73903 492 ft 23 kts 108°
2026-05-07 13:05 38.17590 -85.73698 491 ft 26 kts 108°
2026-05-07 13:05 38.17511 -85.73536 486 ft 20 kts 141°
2026-05-07 13:05 38.17441 -85.73477 499 ft 0 kts 149°